BREEZE-M DEB (TANK), 42751

Orbit data source: Space-Track

BREEZE-M DEB (TANK), 42751 is space debris in HEO originally from a launch on Thu, 08 Jun 2017 UTC launched from the Tyuratam Missile And Space Complex (TTMTR). Debris objects in space refer to the collection of defunct objects orbiting the Earth. Examples of debris include non-operational satellites, rocket bodies, and fragments generated from explosions, collisions, or faulty payload assembly.

Loading next visibility...
Identifier
42751, 2017-032C
Orbit
HEO
Country
Flag of CISCIS
Related business
Manufacturer
Khrunichev
Mission
Spacecraft
Bus & Motor
BRIZ TANK, Unknown motor
Mass
~1,000 kg wet, 1,000 kg dry
Launch date (UTC)
2017-06-08 (9 years ago)
Launch vehicle
Unknown
Launch site
Tyuratam Missile And Space Complex (TTMTR)
Object type
Payload
Rocket body
Debris
Shape & HBR
Torus, 2.0 m
Radar Cross Section
8.218 m², Large (>1 m²)

Expand to show TLE details & history
Last TLE update: 2 days ago

TLE from 2 days ago
0 BREEZE-M DEB (TANK)
1 42751U 17032C   26171.16160611  .00003364  00000-0  48945-3 0  9990
2 42751  49.7119 252.8661 4551154 261.5569  46.1886  6.38593331206294
Epoch: 2026-06-20T03:52Z
TLE epoch observation values (Epoch: 2026-06-20T03:52:42.767Z)
Latitude
0.00003°
Longitude
-73.68698°
Altitude
4,058.523 km
Speed
6.627 km/s
True Right ascension
16h 51m 29s
True Declination
0° 00' 00"
Sunlit
Object was in full shadow at epoch
Visualization orbit readout
Latitude
Unknown
Longitude
Unknown
Altitude
Unknown
Speed
Unknown
Apparent Right ascension
Unknown
Apparent Declination
Unknown
Sunlit
N/A
Visualization observer readout
Local Sidereal Time
00:55:21
Azimuth
Unknown
Elevation
Unknown
Doppler factor
Unknown
Orbital elements
Apogee altitude
11,480.138 km
Perigee altitude
309.098 km
Semi-major axis
12,272.755 km
Eccentricity
0.45512
Inclination
49.7119°
RAAN
252.8661°
Arg. of periapsis
261.5569°
True anomaly
98.55597°
Mean anomaly
46.1886°
Eccentric anomaly
70.81686°
Mean motion
1.59636 °/min
Orbital period
225.51 mins
BSTAR
0.00048945
Loading maneuver chart data...
Computing Atmospheric mass density...
Loading historical data...
Loading historical data...
Loading historical data...
Loading historical data...
Loading historical data...
Loading historical data...
Loading historical data...
Other satellites on launch #32 in the year 2017 (2017-06-08 UTC)

Documentation

Showing up to 5 results
|